Regional Weather Roundup
Issued by NWS

Home | Current Version | Previous Version | Text Only | Print | Product List | Glossary On
Versions: 1 2 3 4 5 6 7 8 9 10 11 12 13 14 15 16 17 18 19 20 21 22 23 24 25 26 27 28 29 30 31 32 33 34 35 36 37 38 39 40 41 42 43 44 45 46 47 48 49 50
000
ASUS43 KMKX 192121
RWRWI

WISCONSIN REGIONAL WEATHER ROUNDUP
NATIONAL WEATHER SERVICE MILWAUKEE/SULLIVAN WI
400 PM CDT TUE SEP 19 2017

NOTE: "FAIR" INDICATES FEW OR NO CLOUDS BELOW 12,000 FEET WITH NO
SIGNIFICANT WEATHER AND/OR OBSTRUCTIONS TO VISIBILITY.

WIZ001-002-006>008-014>016-023>028-192200-
NORTHWEST WISCONSIN

CITY           SKY/WX    TMP DP  RH WIND       PRES   REMARKS
SUPERIOR ARPT  PTSUNNY   63  57  82 E13G23    29.85F
ASHLAND        CLOUDY    70  58  65 NE10      29.88F
HAYWARD        PTSUNNY   74  59  59 SE7       29.86F
SIREN          PTSUNNY   78  60  54 SE10G16   29.82F
CUMBERLAND     PTSUNNY   72  59  64 SE12G17   29.85S
RICE LAKE      MOSUNNY   77  60  55 SE13G21   29.86F
CHETEK         MOSUNNY   73  62  67 SE14      29.85F
LADYSMITH      MOSUNNY   77  57  50 SE10      29.89F
EAU CLAIRE     PTSUNNY   79  62  56 SE18G25   29.84F HX  80
MENOMONIE      MOSUNNY   77  62  60 SE13G21   29.84F
NEW RICHMOND   MOSUNNY   76  60  56 SE14G20   29.82S
OSCEOLA        PTSUNNY   78  61  56 S13       29.82F
$$

WIZ003>005-009-010-017-018-192200-
NORTH CENTRAL WISCONSIN

CITY           SKY/WX    TMP DP  RH WIND       PRES   REMARKS
MANITOWISH WTR MOSUNNY   71  57  60 SE8       29.93F
ARBOR VITAE    MOSUNNY   72  57  58 S9        29.93F
WOODRUFF       MOSUNNY   72  57  58 S9        29.93F
RHINELANDER    SUNNY     74  55  51 SE12G22   29.95F
EAGLE RIVER    PTSUNNY   72  54  52 SE8       29.95S
LAND O LAKES   PTSUNNY   71  55  57 SE9       29.97F
PHILLIPS       PTSUNNY   74  57  54 SE12      29.90F
TOMAHAWK         N/A     74  55  50 S6        29.94S
MEDFORD        SUNNY     74  53  47 S12       29.91F
MERRILL        NOT AVBL
$$

WIZ029-030-035-036-043>047-192200-
CENTRAL WISCONSIN

CITY           SKY/WX    TMP DP  RH WIND       PRES   REMARKS
WAUSAU         SUNNY     75  56  51 SE12      29.92F
MOSINEE        MOSUNNY   75  55  50 SE12      29.94F
MARSHFIELD     SUNNY     77  51  40 SE14      29.90F
STEVENS POINT  SUNNY     74  56  51 SE9       29.93F
WAUPACA        SUNNY     79  57  46 E12       29.94S HX  80
WAUTOMA        SUNNY     79  55  43 E7        29.92F
WISC RAPIDS    SUNNY     79  53  40 S12       29.92F
CAMP DOUGLAS   MOSUNNY   81  59  47 SE12      29.89F HX  81
$$

WIZ011>013-019>022-031-037>040-048>050-192200-
NORTHEAST WISCONSIN

CITY           SKY/WX    TMP DP  RH WIND       PRES   REMARKS
ANTIGO         MOSUNNY   72  57  60 SE10      29.97S
SHAWANO        MOSUNNY   75  60  60 SE10      29.95F
OCONTO         SUNNY     73  56  55 SE12      29.96F
STURGEON BAY   SUNNY     70  53  54 E8        29.98F
GREEN BAY      MOSUNNY   75  60  59 E8        29.95F
MANITOWOC      SUNNY     68  59  73 SE7       29.97F
APPLETON       MOSUNNY   75  54  46 SE14      29.94F
CLINTONVILLE   MOSUNNY   75  57  53 SE8       29.94F
OSHKOSH        SUNNY     75  61  61 E13       29.93F
$$

WIZ032>034-041-042-053>061-192200-
SOUTHWEST WISCONSIN

CITY           SKY/WX    TMP DP  RH WIND       PRES   REMARKS
LA CROSSE      MOSUNNY   83  63  50 SE14      29.84F HX  84
SPARTA         SUNNY     80  61  52 SE12G17   29.88F HX  81
VIROQUA        PTSUNNY   76  64  65 SE12      29.90F
BOSCOBEL       MOSUNNY   83  62  49 VRB6      29.88F HX  84
PRAIRIE DU CHI MOSUNNY   81  59  47 SE8       29.86F HX  81
PLATTEVILLE    MOSUNNY   82  63  53 S8        29.90F HX  83
$$

WIZ056-057-062-063-064-067-068-192200-
SOUTH CENTRAL WISCONSIN

CITY           SKY/WX    TMP DP  RH WIND       PRES   REMARKS
REEDSBURG      SUNNY     79  59  49 SE5G10    29.90F HX  80
BARABOO/DELLS  SUNNY     80  53  38 S10       29.91F HX  80
LONE ROCK      MOSUNNY   78  63  59 SE9       29.89F HX  80
MINERAL POINT  MOSUNNY   82  63  51 S10G17    29.91F HX  83
MADISON        MOSUNNY   81  60  48 S8        29.90F HX  82
MIDDLETON      SUNNY     81  61  51 SE9       29.91F HX  81
WATERTOWN      SUNNY     79  64  60 E10       29.91S HX  80
MONROE         SUNNY     79  61  53 SE6       29.91F HX  80
JANESVILLE     PTSUNNY   81  63  54 SE7       29.90F HX  82
$$

WIZ051-052-058>065-066-070>072-192200-
SOUTHEAST WISCONSIN

CITY           SKY/WX    TMP DP  RH WIND       PRES   REMARKS
MILWAUKEE      PTSUNNY   69  65  86 NE10      29.95S FOG
WAUKESHA       SUNNY     73  61  64 E9        29.95F
MILWAUKEE/TIMM PTSUNNY   70  59  68 E8        29.96F
RACINE         CLOUDY    69  66  90 E7        29.96F FOG
BURLINGTON     MOSUNNY   77  65  65 E9        29.93S
KENOSHA        PTSUNNY   74  64  71 E9        29.95F
FOND DU LAC    SUNNY     77  56  48 SE10G18   29.93F
SHEBOYGAN      SUNNY     70  61  73 E9        29.96F
WEST BEND        N/A     72  63  73 E8        29.95F
JUNEAU         SUNNY     77  60  55 SE7       29.93F
$$

LSZ147-162-192200-
LAKE SUPERIOR

STATION/POSITION TIME  TEMP    WIND        PRES    WAVE
                       AIR SEA DIR/SP/G            HT/PER
                 (UTC) (F)     (DEG/KT/KT) (MB)    (FT/S)
W MID LAKE BUOY  2050   57 55   50/ 14/ 16 1012.7F   1/ 4
DEVILS ISLAND    2100   58      60/ 14/ 15 1012.3F
SAXON HARBOR     2040   65     320/  3/  4 1011.5F
$$

LMZ867-665-643>646-192200-
LAKE MICHIGAN

STATION/POSITION TIME  TEMP    WIND        PRES    WAVE
                       AIR SEA DIR/SP/G            HT/PER
                 (UTC) (F)     (DEG/KT/KT) (MB)    (FT/S)
S GREEN BAY BUOY 2100   70 67  110/ 10/ 12 1014.5
N MID LAKE BUOY  2050   65 65   70/  8/ 10 1016.1F   1/ 3
NORTHPORT PIER   2040   66      80/  5/  6 1015.6S
KEWAUNEE LAKESHO 2054   66      40/  2/  5 1014.3F
SHEBOYGAN LAKESH 2100   65      80/  8/  8 1014.3F
PORT WASHINGTON  2030   68      80/  6/  7 1015.2F
ATWATER BUOY     2009   66 68   60/ 10/ 12 1014.6F
MILWAUKEE LAKESH 2100   66      60/  7/  8   N/A
S MID LAKE BUOY  2050   68 69   50/  6/  6 1014.2S   1/ 4
KENOSHA   LAKESH 2100   68      80/ 10/ 11 1013.5
$$

TC  - TEMPERATURE IN CELSIUS
VSB - VISIBILITY IN STATUTE MILES
WCI - WIND CHILL INDEX
HX  - HEAT INDEX





USA.gov is the U.S. government's official web portal to all federal, state and local government web resources and services.